sat.trackr.live / text

‹ back to catalog

STARLINK-32273

NORAD 61956 · 2024-209T

PAYLOAD ACTIVE UNKNOWN

§ Identity

Operator
Country
US
Launch date
2024-11-14
Launch site
AFWTR
Launch vehicle
Mass (kg)
RCS (m²)

Purposes: comms

External: N2YO · Heavens-Above · Gunter

§ Orbital elements

Epoch: 2026-05-25T00:11:39.230016Z

Period
94.11 min
Inclination
53.1596°
Eccentricity
0.0001174
Mean motion
15.30203216 rev/d
Perigee alt
474.4 km
Apogee alt
476.0 km
Semi-major
6,853.3 km
B*
5.6492e-4
RAAN
147.7617°
Arg perigee
92.3498°
Mean anomaly
267.7637°
Rev number
8,658

§ Raw data

STARLINK-322731 61956U 24209T   26145.00809294  .00016411  00000+0  56492-3 0  99952 61956  53.1596 147.7617 0001174  92.3498 267.7637 15.30203216 86587

JSON: /api/v1/satellites/61956 · /tle

For live sub-satellite position, see the globe view (requires WebGL).

§ Visibility from observer

Set your observer location to see the next 7 days of passes ≥ 10°. The values pass through the URL so the page stays shareable.

No JS? Fill the form by hand. The geolocation button needs JavaScript.